Погода Боковская

Погода Боковская : погода сейчас, прогноз погоды и архив. Всё, что Вы хотите узнать о погоде Боковская!

Хотите узнать прогноз погоды Боковская? Тогда Вам сюда: Погода Боковская

Поиск расширенной информации на нашем сайте:

Другие новости

Новости СМИ2

Главная страница сайта

Новости сайта

02.10.2013

Напоминаем, что на нашем новом сайте вы можете получить высокодетализированные прогнозы погоды по пунктам России, СНГ и мира (включающие важные для авиации метеовеличины, такие как направление и скорость ветра, видимость, явления погоды, количество и форма облачности, нижняя и верхняя граница облачности), а также ознакомиться с разнообразными материалами по авиационной метеорологии и подборкой полезных ссылок на эту тему.

Сайт Метеоцентр.Азия посвящён разработке технологий оптимизации авиаметеорологического обслуживания, включая проектирование и перспективное создание нескольких автоматизированных авиаметеорологических систем:
- система выпуска высокодетальных прогностических карт явлений погоды для нижнего воздушного пространства по России и ближнему зарубежью;
- система верификации прогнозов TAF (выпускаемых синоптиками официальных АМСГ РФ и ближнего зарубежья) и AUTOTAF (выпускаемых сайтом Метеоцентр.Азия) - выявление ошибок, онлайн-сопоставление с фактической погодой METAR, автоматическое внесение коррективов в прогнозы при резком отклонении фактической погоды от прогноза, подсчёт оправдываемости прогнозов по элементам и в целом;
- система обработки, анализа и отображения авиаметеорологической информации для применения провайдерами метеорологической информации.


Погода Боковская - сегодня

Время (UTC), дата Ветер
(°,м/с) 
Видим.   Явления Облачность Т
(°С)
Тd
(°С)
f(%) Тe
(°С)
Pmin
(гПа)
dP
(гПа)
Po
(мм)
O2
(г/м3)
Тmin Tmax R s Состояние
почвы
09 18.01.17 030 (СВ) 20000 м    10/0 средняя 
[As op]
-4.1 -6.3 85 -6  1035.5  0.4  768  315           
12 18.01.17 040 (СВ) 20000 м    10/0 средняя 
[As op]
-4.3 -7.2 80 -7  1035.6  0.1  768  315           
15 18.01.17 020 (С) 20000 м    9/3 600 м средняя 
[Sc|Ac As]
-6.6 -8.5 86 -6  1036.7  768  318    -3.6       
18 18.01.17 290 (З) 4000 м  дымка  3/0 средняя 
[As op]
-12.4 -13.6 91 -12  1037.4  0.5  769  326           
21 18.01.17 тихо ()   4000 м  дымка [диам. изморози 0 мм]  10/0 средняя 
[Ac As]
-8.5 -9.7 91 -9  1036.7  -0.5  768  321           
00 19.01.17 020 (С) 4000 м  снежные зёрна  10/10 200 м 
[St]
-7.2 -8.5 90 -10  1036.5  -0.1  768  319           
03 19.01.17 010 (С) 20000 м  {снег}  10/10 200 м 
[St]
-6.5 -9 82 -9  1036.6  768  318  -12.6    0.0  равномерный
сухой снег
100% 
06 19.01.17 350 (С) 20000 м  {снег}  10/10 300 м 
[St]
-6.8 -9.5 81 -8  1037.3  0.7  769  319           
09 19.01.17 280 (З) 20000 м    10/10 600 м 
[Sc]
-6 -9.1 79 -6  1037  -0.2  769  318           
12 19.01.17 260 (З) 20000 м    9/9 600 м 
[Sc]
-5.7 -9 78 -7  1035.7  -1.2  768  317           
15 19.01.17 240 (ЮЗ) 20000 м    9/9 600 м 
[Sc]
-6.8 -9.4 82 -8  1035  -0.8  767  318    -5.4       
18 19.01.17 220 (ЮЗ) 20000 м    ясно 
-10.6 -11.9 90 -12  1034.4  -0.7  767  323           
21 19.01.17 тихо ()   20000 м    ясно 
-12 -13.6 88 -12  1033.4  -1.1  766  324           
00 20.01.17 220 (ЮЗ) 20000 м    ясно 
-11.1 -13 86 -15  1031.2  -2.1  764  322           
03 20.01.17 220 (ЮЗ) 20000 м    ясно 
-11.3 -13.3 85 -14  1029.4  -1.8  763  322  -12      равномерный
сухой снег
100% 
06 20.01.17 220 (ЮЗ) 20000 м    10/0 средняя, верхняя 
[Ac lent|Ci sp]
-9.8 -12 84 -13  1027.4  -1.9  761  319           
09 20.01.17 240 (ЮЗ) 4{10}  20000 м    10/0 средняя 
[Ac As]
-7.5 -10.2 81 -11  1025.5  -1.8  760  316           
12 20.01.17 240 (ЮЗ) 4{12}  20000 м  позёмок  10/0 
[St]
-6.9 -9.6 81 -10  1022.6  -2.7  758  314           
15 20.01.17 240 (ЮЗ) 5{11}  20000 м  в посл. час снег  10/3 600 м средняя 
[Sc|As op]
-6.2 -8.5 84 -10  1021.1  -1.5  757  313    -6.2  0.0     
18 20.01.17 250 (З) 20000 м  позёмок{снег}  10/0 средняя 
[As op]
-6.1 -7.6 89 -9  1021.4  0.2  757  313           
21 20.01.17 270 (З) 20000 м    10/0 средняя 
[As op]
-5.9 -7.3 90 -8  1020.8  -0.5  757  312           
00 21.01.17 250 (З) 20000 м    10/10 300 м 
[St]
-5.6 -7.3 88 -8  1020.4  -0.5  756  312           
03 21.01.17 240 (ЮЗ) 20000 м    10/10 300 м 
[St]
-5 -6.6 89 -8  1019.3  -1.1  756  311  -6.3      равномерный
сухой снег
100% 
06 21.01.17 230 (ЮЗ) 20000 м    10/0 средняя 
[Ac As]
-4.4 -6.1 88 -8  1018.6  -0.6  755  310           
09 21.01.17 230 (ЮЗ) 6{10}  20000 м    10/0 средняя 
[Ac As]
-3.3 -5.3 86 -7  1017.1  -1.4  754  308           
Время (UTC), дата Ветер
(°,м/с) 
Видим.   Явления Облачность Т
(°С)
Тd
(°С)
f(%) Тe
(°С)
Pmin
(гПа)
dP
(гПа)
Po
(мм)
O2
(г/м3)
Тmin Tmax R s Состояние
почвы

Для получения пояснительной информации подведите курсор к названию столбца.

ПОГОДА Боковская - архив

Всё, что Вы хотите узнать о погоде Боковская - удобно и подробно!

Выберите нужную дату (начиная с 1 января 2015* года) и нажмите кнопку "Найти".
Будут отображены архивные сводки погоды по пункту Боковская, начиная с указанной даты.


Отображать данные в формате CSV (для использования в таблицах Excel)


Внимание! Наш архив погоды предназначен исключительно для личного некоммерческого использования в познавательных целях. Если Вам необходимы официальные справки о состоянии погоды (для производственных, юридических, коммерческих и т.п. целей), обращайтесь в органы Росгидромета.

*Примечание: данная дата относится к архиву по метеостанциям СССР (Россия, СНГ, Балтия).
Архив по метеостанциям Зарубежной Европы и Азии (кроме Китая) хранится 10 дней, по другим регионам земного шара (Китай, Африка, Америка, Австралия, Океания) - 1 день.

Боковская - район местоположения метеостанции


Название, широта, долгота, высота метеостанции:
Боковская 49.2°ш. 41.8°д. 91 м над ур. моря [Российская Федерация]

Дополнительная информация

В oтличие oт бoльшинства пoгoдных сайтoв мы публикуем пoдрoбную метеoинфoрмацию в детальнoм прoфессиoнальнoм фoрмате.

Характеристики температуры и влажнoсти вoздуха измеряются на высoте 2 м в тени вдали oт зданий и деревьев.
Скoрoсть ветра измеряется на высoте 10 м (на урoвне рoста челoвека скoрoсть ветра ниже в 1.5-2 раза). Если метеoстанция нахoдится в гoрoде или в лесу, тo скoрoсть ветра занижена на 2-4 м/с пo сравнению с oткрытым местoм. Скoрoсть ветра над акватoриями крупных рек и oзёр, а также на вершинах хoлмoв на 2-5 м/с выше, чем в oбычных услoвиях.
Атмoсфернoе давление в разных тoчках местнoсти мoжет значительнo oтличаться oт давления на метеoстанции, в зависимoсти oт услoвий рельефа (при пoдъёме на 10 м давление пoнижается примернo на 1 мм рт.ст.).